GFSMA_prec_precacc6_087.txt.gz
Total_Precipitation_Accumulation
0.02 0.00 0.01 0.01 0.01 0.00 0.00 0.01 0.04 0.16 0.18 0.10 0.01 0.02 0.01 0.00 0.00 0.00 0.00 0.00 0.00 0.00 0.00 0.01 0.01 0.00 0.00 0.00 0.00 0.00 0.00 0.00 0.00 0.00 0.00 0.00 0.00 0.00 0.00 0.00 0.00 0.00 0.00
0.04 0.00 0.00 0.00 0.01 0.00 0.02 0.06 0.12 0.27 0.32 0.20 0.13 0.04 0.02 0.00 0.00 0.00 0.00 0.00 0.00 0.00 0.00 0.01 0.01 0.01 0.00 0.01 0.01 0.00 0.00 0.00 0.00 0.00 0.00 0.00 0.00 0.00 0.00 0.00 0.00 0.00 0.00
0.03 0.02 0.02 0.01 0.00 0.01 0.01 0.06 0.19 0.51 0.47 0.29 0.18 0.05 0.00 0.00 0.00 0.00 0.00 0.00 0.00 0.00 0.00 0.01 0.01 0.01 0.01 0.01 0.00 0.00 0.00 0.00 0.00 0.00 0.00 0.00 0.00 0.00 0.00 0.00 0.00 0.00 0.00
0.07 0.05 0.03 0.03 0.02 0.05 0.12 0.14 0.17 0.54 0.49 0.28 0.15 0.03 0.00 0.00 0.00 0.00 0.00 0.00 0.00 0.00 0.00 0.01 0.01 0.01 0.02 0.01 0.00 0.00 0.00 0.00 0.00 0.00 0.00 0.00 0.00 0.00 0.00 0.00 0.00 0.00 0.00
0.06 0.06 0.05 0.03 0.06 0.09 0.09 0.22 0.24 0.46 0.59 0.34 0.10 0.02 0.00 0.00 0.00 0.00 0.00 0.00 0.00 0.00 0.00 0.00 0.01 0.01 0.02 0.01 0.00 0.00 0.00 0.00 0.00 0.00 0.00 0.00 0.00 0.00 0.00 0.00 0.00 0.00 0.00
0.05 0.07 0.08 0.07 0.08 0.04 0.05 0.26 0.35 0.42 0.57 0.32 0.07 0.02 0.00 0.00 0.00 0.00 0.00 0.00 0.00 0.00 0.00 0.00 0.00 0.00 0.00 0.00 0.00 0.00 0.00 0.00 0.00 0.00 0.00 0.00 0.00 0.00 0.00 0.00 0.00 0.00 0.00
0.07 0.11 0.07 0.06 0.04 0.02 0.03 0.19 0.38 0.41 0.53 0.34 0.10 0.02 0.00 0.00 0.00 0.00 0.00 0.00 0.00 0.00 0.00 0.00 0.00 0.00 0.00 0.00 0.00 0.00 0.00 0.00 0.00 0.00 0.00 0.00 0.00 0.00 0.00 0.00 0.00 0.00 0.00
0.03 0.06 0.05 0.06 0.08 0.05 0.02 0.21 0.30 0.34 0.38 0.19 0.04 0.00 0.01 0.01 0.00 0.00 0.00 0.00 0.00 0.00 0.00 0.00 0.00 0.00 0.00 0.00 0.00 0.00 0.00 0.00 0.00 0.00 0.00 0.00 0.00 0.00 0.00 0.00 0.00 0.00 0.00
0.02 0.05 0.13 0.15 0.09 0.13 0.09 0.12 0.20 0.16 0.21 0.16 0.01 0.00 0.00 0.01 0.00 0.00 0.00 0.00 0.00 0.00 0.00 0.00 0.00 0.00 0.00 0.00 0.00 0.00 0.00 0.00 0.00 0.00 0.00 0.00 0.00 0.00 0.00 0.00 0.00 0.00 0.00
0.05 0.05 0.01 0.03 0.08 0.11 0.20 0.19 0.18 0.17 0.14 0.16 0.03 0.00 0.00 0.00 0.00 0.00 0.01 0.00 0.00 0.00 0.00 0.00 0.00 0.00 0.00 0.00 0.00 0.00 0.00 0.00 0.00 0.00 0.00 0.00 0.00 0.00 0.00 0.00 0.00 0.00 0.00
0.02 0.02 0.01 0.04 0.12 0.13 0.17 0.22 0.21 0.20 0.12 0.12 0.03 0.01 0.00 0.00 0.00 0.00 0.00 0.00 0.00 0.00 0.00 0.00 0.00 0.00 0.00 0.00 0.00 0.00 0.00 0.00 0.00 0.00 0.00 0.00 0.00 0.00 0.00 0.00 0.00 0.00 0.00
0.00 0.01 0.03 0.06 0.13 0.13 0.17 0.27 0.21 0.17 0.13 0.11 0.06 0.02 0.00 0.00 0.00 0.00 0.01 0.01 0.00 0.00 0.00 0.00 0.00 0.00 0.00 0.00 0.00 0.00 0.00 0.00 0.00 0.00 0.00 0.00 0.00 0.00 0.00 0.00 0.00 0.00 0.00
0.00 0.00 0.03 0.11 0.16 0.19 0.21 0.29 0.32 0.22 0.14 0.09 0.05 0.04 0.02 0.00 0.00 0.01 0.01 0.01 0.01 0.00 0.02 0.00 0.00 0.00 0.00 0.00 0.00 0.00 0.00 0.00 0.00 0.00 0.00 0.00 0.00 0.00 0.00 0.00 0.00 0.00 0.00
0.00 0.00 0.00 0.09 0.15 0.29 0.34 0.23 0.24 0.19 0.14 0.09 0.06 0.04 0.03 0.02 0.02 0.01 0.01 0.01 0.01 0.01 0.02 0.03 0.00 0.00 0.00 0.00 0.00 0.00 0.00 0.00 0.00 0.00 0.00 0.00 0.00 0.00 0.00 0.00 0.00 0.00 0.00
0.00 0.00 0.00 0.02 0.09 0.18 0.33 0.21 0.16 0.14 0.12 0.09 0.07 0.05 0.04 0.04 0.04 0.01 0.01 0.01 0.02 0.02 0.00 0.01 0.02 0.01 0.02 0.04 0.02 0.00 0.00 0.00 0.00 0.00 0.00 0.00 0.00 0.00 0.00 0.00 0.00 0.00 0.00
0.01 0.01 0.00 0.01 0.03 0.11 0.19 0.30 0.20 0.15 0.13 0.08 0.06 0.05 0.03 0.02 0.00 0.01 0.00 0.00 0.01 0.01 0.01 0.00 0.00 0.00 0.03 0.04 0.03 0.02 0.00 0.00 0.00 0.01 0.01 0.00 0.00 0.00 0.00 0.00 0.00 0.00 0.00
0.00 0.01 0.01 0.00 0.02 0.07 0.15 0.27 0.30 0.12 0.12 0.11 0.06 0.05 0.03 0.02 0.01 0.01 0.01 0.01 0.01 0.02 0.02 0.00 0.00 0.00 0.00 0.00 0.00 0.00 0.00 0.00 0.00 0.00 0.00 0.00 0.00 0.00 0.00 0.00 0.00 0.00 0.00
0.01 0.00 0.01 0.01 0.00 0.02 0.09 0.19 0.27 0.18 0.07 0.09 0.14 0.09 0.06 0.04 0.03 0.04 0.02 0.01 0.01 0.01 0.02 0.01 0.00 0.00 0.00 0.00 0.00 0.00 0.00 0.00 0.00 0.00 0.00 0.00 0.00 0.00 0.01 0.01 0.00 0.00 0.00
0.00 0.00 0.01 0.02 0.01 0.00 0.04 0.13 0.16 0.15 0.15 0.07 0.12 0.14 0.09 0.06 0.05 0.06 0.06 0.04 0.02 0.01 0.01 0.00 0.00 0.00 0.00 0.00 0.00 0.00 0.00 0.00 0.00 0.00 0.00 0.00 0.00 0.00 0.01 0.01 0.00 0.00 0.00
0.00 0.00 0.01 0.06 0.05 0.01 0.05 0.09 0.09 0.10 0.18 0.17 0.09 0.12 0.10 0.08 0.03 0.01 0.01 0.01 0.00 0.00 0.00 0.00 0.00 0.00 0.00 0.00 0.01 0.00 0.00 0.00 0.01 0.01 0.03 0.05 0.04 0.02 0.01 0.01 0.02 0.02 0.01
0.00 0.00 0.00 0.02 0.05 0.02 0.02 0.04 0.06 0.08 0.09 0.19 0.21 0.15 0.10 0.11 0.09 0.06 0.03 0.01 0.01 0.01 0.02 0.03 0.03 0.03 0.03 0.06 0.10 0.12 0.16 0.15 0.17 0.17 0.18 0.17 0.18 0.14 0.13 0.14 0.10 0.09 0.08
0.02 0.02 0.02 0.02 0.02 0.02 0.04 0.03 0.02 0.02 0.04 0.09 0.13 0.15 0.11 0.07 0.03 0.05 0.06 0.06 0.04 0.03 0.03 0.05 0.06 0.07 0.07 0.06 0.05 0.04 0.06 0.06 0.04 0.04 0.04 0.05 0.07 0.11 0.13 0.13 0.17 0.14 0.11
0.02 0.02 0.03 0.03 0.03 0.02 0.04 0.03 0.03 0.00 0.01 0.02 0.02 0.04 0.06 0.09 0.07 0.01 0.04 0.04 0.05 0.07 0.06 0.04 0.05 0.06 0.08 0.11 0.13 0.12 0.13 0.14 0.15 0.13 0.16 0.17 0.16 0.20 0.21 0.19 0.18 0.10 0.07
0.02 0.02 0.01 0.02 0.01 0.03 0.04 0.03 0.03 0.01 0.01 0.02 0.02 0.02 0.03 0.04 0.07 0.07 0.03 0.07 0.09 0.10 0.12 0.10 0.10 0.10 0.09 0.06 0.05 0.05 0.05 0.04 0.05 0.07 0.06 0.07 0.06 0.07 0.09 0.10 0.11 0.08 0.05
0.11 0.09 0.07 0.04 0.03 0.04 0.08 0.05 0.04 0.00 0.02 0.04 0.03 0.03 0.03 0.03 0.08 0.06 0.02 0.01 0.02 0.01 0.03 0.01 0.01 0.01 0.01 0.00 0.00 0.00 0.00 0.00 0.00 0.00 0.00 0.00 0.00 0.01 0.01 0.01 0.01 0.01 0.01
0.09 0.12 0.14 0.13 0.11 0.06 0.08 0.06 0.03 0.00 0.00 0.00 0.00 0.00 0.01 0.00 0.01 0.00 0.00 0.00 0.00 0.00 0.00 0.00 0.00 0.00 0.00 0.00 0.00 0.00 0.00 0.00 0.00 0.00 0.00 0.00 0.00 0.00 0.00 0.00 0.00 0.00 0.00

GFSMA_prec_precacc6_090.txt.gz
Total_Precipitation_Accumulation
0.00 0.00 0.00 0.00 0.00 0.00 0.00 0.00 0.01 0.07 0.15 0.12 0.09 0.05 0.02 0.00 0.00 0.00 0.01 0.00 0.00 0.00 0.00 0.00 0.01 0.01 0.00 0.01 0.01 0.01 0.00 0.00 0.00 0.00 0.00 0.00 0.00 0.00 0.00 0.00 0.00 0.00 0.00
0.00 0.00 0.00 0.00 0.00 0.00 0.00 0.00 0.00 0.02 0.19 0.21 0.23 0.09 0.02 0.00 0.00 0.00 0.00 0.00 0.00 0.00 0.00 0.00 0.00 0.01 0.01 0.01 0.01 0.00 0.00 0.00 0.01 0.00 0.00 0.00 0.00 0.00 0.00 0.00 0.00 0.00 0.00
0.00 0.00 0.00 0.00 0.00 0.00 0.00 0.00 0.01 0.07 0.24 0.25 0.34 0.18 0.03 0.00 0.00 0.00 0.00 0.00 0.00 0.00 0.00 0.00 0.01 0.01 0.01 0.01 0.01 0.00 0.00 0.00 0.00 0.00 0.00 0.00 0.00 0.00 0.00 0.00 0.00 0.00 0.00
0.01 0.01 0.00 0.00 0.02 0.06 0.07 0.05 0.01 0.04 0.17 0.19 0.23 0.21 0.04 0.01 0.00 0.00 0.00 0.00 0.00 0.00 0.00 0.00 0.01 0.01 0.02 0.01 0.00 0.01 0.00 0.00 0.00 0.00 0.00 0.00 0.00 0.00 0.00 0.00 0.00 0.00 0.00
0.00 0.01 0.01 0.02 0.04 0.11 0.07 0.05 0.05 0.08 0.35 0.26 0.16 0.22 0.05 0.00 0.00 0.00 0.00 0.00 0.00 0.00 0.00 0.00 0.00 0.00 0.01 0.01 0.00 0.01 0.00 0.00 0.00 0.00 0.00 0.00 0.00 0.00 0.00 0.00 0.00 0.00 0.00
0.01 0.03 0.04 0.06 0.10 0.09 0.04 0.01 0.06 0.18 0.44 0.36 0.22 0.24 0.07 0.00 0.00 0.00 0.00 0.00 0.00 0.00 0.00 0.00 0.00 0.00 0.00 0.00 0.00 0.00 0.00 0.00 0.00 0.00 0.00 0.00 0.00 0.00 0.00 0.00 0.00 0.00 0.00
0.03 0.04 0.03 0.03 0.03 0.05 0.07 0.05 0.12 0.23 0.37 0.51 0.46 0.34 0.07 0.00 0.00 0.00 0.00 0.00 0.00 0.00 0.00 0.00 0.00 0.00 0.00 0.00 0.00 0.00 0.00 0.00 0.00 0.00 0.00 0.00 0.00 0.00 0.00 0.00 0.00 0.00 0.00
0.02 0.03 0.03 0.04 0.06 0.05 0.02 0.02 0.09 0.23 0.33 0.38 0.37 0.20 0.09 0.03 0.00 0.00 0.00 0.00 0.00 0.00 0.00 0.00 0.00 0.00 0.00 0.00 0.00 0.00 0.00 0.00 0.00 0.00 0.00 0.00 0.00 0.00 0.00 0.00 0.00 0.00 0.00
0.00 0.01 0.01 0.02 0.04 0.07 0.08 0.04 0.03 0.08 0.23 0.27 0.14 0.12 0.03 0.01 0.00 0.00 0.00 0.00 0.00 0.00 0.00 0.00 0.00 0.00 0.00 0.00 0.00 0.00 0.00 0.00 0.00 0.00 0.00 0.00 0.00 0.00 0.00 0.00 0.00 0.00 0.00
0.01 0.00 0.00 0.00 0.01 0.03 0.10 0.11 0.06 0.08 0.12 0.23 0.12 0.07 0.01 0.01 0.01 0.00 0.00 0.00 0.00 0.00 0.00 0.00 0.00 0.00 0.00 0.00 0.00 0.00 0.00 0.00 0.00 0.00 0.00 0.00 0.00 0.00 0.00 0.00 0.00 0.00 0.00
0.01 0.01 0.00 0.00 0.01 0.01 0.04 0.12 0.17 0.17 0.11 0.14 0.08 0.03 0.01 0.01 0.00 0.00 0.00 0.00 0.00 0.00 0.00 0.00 0.00 0.00 0.00 0.00 0.00 0.00 0.00 0.00 0.00 0.00 0.00 0.00 0.00 0.00 0.00 0.00 0.00 0.00 0.00
0.01 0.01 0.00 0.00 0.00 0.02 0.04 0.08 0.17 0.19 0.17 0.15 0.12 0.04 0.01 0.01 0.00 0.00 0.00 0.00 0.00 0.00 0.00 0.00 0.00 0.00 0.00 0.00 0.00 0.00 0.00 0.00 0.00 0.00 0.00 0.00 0.00 0.00 0.00 0.00 0.00 0.00 0.00
0.01 0.01 0.01 0.00 0.00 0.04 0.10 0.13 0.19 0.30 0.23 0.15 0.13 0.07 0.03 0.01 0.00 0.01 0.00 0.00 0.00 0.00 0.00 0.00 0.00 0.00 0.00 0.00 0.00 0.00 0.00 0.00 0.00 0.00 0.00 0.00 0.00 0.00 0.00 0.00 0.00 0.00 0.00
0.00 0.00 0.00 0.00 0.02 0.10 0.20 0.20 0.26 0.28 0.34 0.20 0.14 0.12 0.07 0.04 0.02 0.01 0.00 0.00 0.00 0.01 0.01 0.01 0.00 0.00 0.00 0.00 0.00 0.00 0.00 0.00 0.00 0.00 0.00 0.00 0.00 0.00 0.00 0.00 0.00 0.00 0.00
0.00 0.00 0.00 0.00 0.03 0.12 0.20 0.39 0.32 0.31 0.30 0.26 0.17 0.12 0.07 0.06 0.04 0.02 0.01 0.01 0.01 0.00 0.00 0.01 0.02 0.01 0.01 0.01 0.01 0.00 0.00 0.00 0.00 0.00 0.00 0.00 0.00 0.00 0.01 0.01 0.01 0.01 0.00
0.00 0.00 0.00 0.00 0.00 0.06 0.16 0.39 0.33 0.24 0.25 0.25 0.20 0.17 0.08 0.05 0.03 0.01 0.00 0.00 0.00 0.01 0.00 0.00 0.00 0.00 0.02 0.04 0.05 0.03 0.01 0.01 0.00 0.01 0.02 0.02 0.01 0.01 0.01 0.01 0.01 0.00 0.00
0.00 0.00 0.00 0.00 0.00 0.03 0.13 0.32 0.47 0.26 0.24 0.24 0.19 0.15 0.13 0.08 0.04 0.02 0.01 0.01 0.01 0.01 0.01 0.00 0.00 0.00 0.00 0.00 0.00 0.00 0.01 0.01 0.01 0.02 0.03 0.04 0.04 0.03 0.02 0.02 0.01 0.01 0.00
0.01 0.00 0.00 0.00 0.00 0.01 0.09 0.25 0.40 0.32 0.22 0.25 0.25 0.17 0.14 0.12 0.09 0.06 0.04 0.02 0.01 0.01 0.02 0.01 0.00 0.01 0.01 0.00 0.00 0.00 0.00 0.00 0.00 0.00 0.00 0.00 0.01 0.01 0.01 0.02 0.00 0.00 0.00
0.01 0.01 0.00 0.00 0.00 0.00 0.05 0.24 0.30 0.32 0.25 0.20 0.27 0.24 0.19 0.13 0.12 0.08 0.06 0.05 0.03 0.02 0.02 0.01 0.00 0.00 0.00 0.00 0.00 0.00 0.00 0.00 0.00 0.00 0.00 0.00 0.00 0.00 0.01 0.00 0.00 0.00 0.00
0.01 0.00 0.00 0.04 0.03 0.00 0.05 0.11 0.17 0.24 0.30 0.28 0.19 0.23 0.26 0.21 0.10 0.04 0.03 0.03 0.04 0.05 0.03 0.01 0.00 0.00 0.00 0.00 0.00 0.00 0.00 0.00 0.02 0.05 0.09 0.12 0.10 0.07 0.07 0.07 0.09 0.09 0.07
0.00 0.00 0.00 0.02 0.05 0.01 0.02 0.04 0.07 0.09 0.24 0.37 0.34 0.26 0.15 0.15 0.13 0.09 0.07 0.04 0.02 0.02 0.02 0.00 0.00 0.01 0.01 0.02 0.04 0.06 0.08 0.09 0.13 0.15 0.18 0.18 0.18 0.17 0.18 0.17 0.11 0.10 0.09
0.02 0.02 0.01 0.02 0.03 0.02 0.05 0.05 0.04 0.05 0.06 0.10 0.11 0.11 0.12 0.09 0.04 0.04 0.05 0.06 0.04 0.03 0.03 0.03 0.03 0.03 0.05 0.04 0.03 0.03 0.02 0.02 0.03 0.04 0.04 0.04 0.04 0.05 0.06 0.05 0.08 0.07 0.07
0.03 0.03 0.03 0.03 0.03 0.03 0.05 0.04 0.03 0.02 0.04 0.03 0.03 0.05 0.07 0.10 0.08 0.02 0.03 0.02 0.02 0.04 0.03 0.03 0.02 0.03 0.04 0.06 0.06 0.08 0.09 0.10 0.09 0.07 0.05 0.05 0.04 0.03 0.03 0.03 0.04 0.02 0.01
0.03 0.03 0.02 0.03 0.02 0.03 0.05 0.06 0.06 0.01 0.01 0.01 0.01 0.01 0.02 0.03 0.05 0.07 0.05 0.04 0.05 0.06 0.08 0.09 0.08 0.10 0.08 0.06 0.04 0.03 0.03 0.02 0.01 0.01 0.00 0.00 0.00 0.00 0.00 0.00 0.00 0.00 0.00
0.05 0.05 0.05 0.04 0.02 0.02 0.05 0.05 0.05 0.01 0.02 0.02 0.02 0.03 0.03 0.02 0.08 0.06 0.02 0.02 0.02 0.02 0.03 0.02 0.01 0.01 0.00 0.00 0.00 0.00 0.00 0.00 0.00 0.00 0.00 0.00 0.00 0.00 0.00 0.00 0.00 0.00 0.00
0.10 0.10 0.16 0.16 0.16 0.08 0.13 0.11 0.08 0.03 0.04 0.02 0.02 0.03 0.05 0.02 0.04 0.02 0.01 0.00 0.00 0.00 0.00 0.00 0.00 0.00 0.00 0.00 0.00 0.00 0.00 0.00 0.00 0.00 0.00 0.00 0.00 0.00 0.00 0.00 0.00 0.00 0.00

GFSMA_prec_precacc6_093.txt.gz
Total_Precipitation_Accumulation
0.00 0.00 0.00 0.00 0.00 0.00 0.00 0.00 0.00 0.03 0.15 0.24 0.34 0.32 0.18 0.07 0.04 0.02 0.02 0.02 0.12 0.05 0.03 0.03 0.02 0.02 0.00 0.01 0.02 0.02 0.01 0.00 0.00 0.00 0.00 0.00 0.00 0.00 0.00 0.00 0.00 0.00 0.00
0.00 0.00 0.00 0.00 0.00 0.00 0.00 0.00 0.00 0.00 0.08 0.22 0.41 0.28 0.13 0.07 0.03 0.04 0.01 0.00 0.01 0.03 0.01 0.03 0.02 0.01 0.01 0.01 0.02 0.02 0.01 0.01 0.01 0.01 0.00 0.00 0.00 0.00 0.00 0.00 0.00 0.00 0.00
0.00 0.00 0.00 0.00 0.00 0.00 0.00 0.00 0.01 0.02 0.11 0.16 0.40 0.31 0.11 0.05 0.04 0.06 0.03 0.00 0.00 0.00 0.00 0.00 0.02 0.02 0.02 0.01 0.01 0.01 0.01 0.01 0.01 0.01 0.01 0.00 0.00 0.00 0.00 0.00 0.00 0.00 0.00
0.00 0.00 0.00 0.00 0.00 0.01 0.01 0.05 0.01 0.01 0.03 0.07 0.16 0.30 0.12 0.06 0.03 0.06 0.03 0.00 0.00 0.00 0.00 0.00 0.00 0.01 0.02 0.01 0.01 0.01 0.01 0.01 0.01 0.01 0.01 0.00 0.00 0.00 0.00 0.00 0.00 0.00 0.00
0.00 0.00 0.00 0.00 0.00 0.02 0.03 0.05 0.05 0.00 0.00 0.04 0.09 0.24 0.10 0.05 0.04 0.03 0.02 0.00 0.00 0.00 0.00 0.00 0.00 0.00 0.01 0.02 0.01 0.01 0.01 0.01 0.01 0.01 0.00 0.00 0.00 0.00 0.00 0.00 0.00 0.00 0.00
0.00 0.00 0.00 0.00 0.02 0.05 0.04 0.01 0.03 0.03 0.03 0.11 0.20 0.26 0.16 0.04 0.05 0.04 0.01 0.00 0.00 0.00 0.00 0.00 0.00 0.00 0.01 0.01 0.01 0.01 0.01 0.01 0.01 0.01 0.00 0.00 0.00 0.00 0.00 0.00 0.00 0.00 0.00
0.00 0.00 0.00 0.00 0.01 0.04 0.08 0.05 0.04 0.03 0.04 0.23 0.42 0.43 0.32 0.15 0.06 0.04 0.01 0.00 0.00 0.00 0.00 0.00 0.00 0.00 0.00 0.01 0.00 0.01 0.01 0.01 0.01 0.00 0.00 0.00 0.00 0.00 0.00 0.00 0.00 0.00 0.00
0.00 0.01 0.01 0.02 0.03 0.05 0.02 0.03 0.04 0.02 0.08 0.24 0.35 0.32 0.36 0.33 0.21 0.05 0.01 0.00 0.00 0.00 0.00 0.00 0.00 0.00 0.00 0.00 0.00 0.00 0.01 0.01 0.01 0.00 0.00 0.00 0.00 0.00 0.00 0.00 0.00 0.00 0.00
0.00 0.00 0.01 0.02 0.04 0.07 0.06 0.04 0.04 0.02 0.08 0.16 0.14 0.22 0.19 0.17 0.10 0.04 0.01 0.00 0.00 0.00 0.00 0.00 0.00 0.00 0.00 0.00 0.00 0.00 0.00 0.00 0.00 0.00 0.00 0.00 0.00 0.00 0.00 0.00 0.00 0.00 0.00
0.00 0.01 0.01 0.02 0.02 0.03 0.05 0.05 0.06 0.06 0.06 0.09 0.12 0.17 0.06 0.05 0.05 0.10 0.07 0.01 0.00 0.00 0.00 0.00 0.00 0.00 0.00 0.00 0.00 0.00 0.00 0.00 0.00 0.00 0.00 0.00 0.00 0.00 0.00 0.00 0.00 0.00 0.00
0.00 0.01 0.01 0.01 0.01 0.01 0.03 0.03 0.08 0.09 0.07 0.06 0.06 0.11 0.12 0.08 0.13 0.13 0.12 0.04 0.00 0.00 0.00 0.00 0.00 0.00 0.00 0.00 0.00 0.00 0.00 0.00 0.00 0.00 0.00 0.00 0.00 0.00 0.00 0.00 0.00 0.00 0.00
0.01 0.01 0.01 0.01 0.01 0.01 0.02 0.02 0.08 0.12 0.12 0.11 0.13 0.06 0.07 0.10 0.10 0.10 0.05 0.01 0.00 0.00 0.00 0.00 0.00 0.00 0.00 0.00 0.00 0.00 0.00 0.00 0.00 0.00 0.00 0.00 0.00 0.00 0.00 0.00 0.00 0.00 0.00
0.01 0.01 0.01 0.01 0.01 0.01 0.03 0.05 0.05 0.18 0.19 0.16 0.20 0.11 0.04 0.05 0.08 0.10 0.07 0.02 0.00 0.00 0.00 0.00 0.00 0.00 0.00 0.00 0.00 0.00 0.00 0.00 0.00 0.00 0.00 0.00 0.00 0.00 0.00 0.00 0.00 0.00 0.00
0.00 0.00 0.01 0.01 0.01 0.02 0.07 0.13 0.17 0.18 0.31 0.27 0.24 0.22 0.09 0.06 0.06 0.04 0.02 0.05 0.03 0.00 0.00 0.00 0.00 0.00 0.00 0.00 0.00 0.00 0.00 0.00 0.00 0.00 0.00 0.00 0.00 0.00 0.00 0.00 0.00 0.00 0.00
0.00 0.00 0.00 0.00 0.00 0.03 0.09 0.32 0.29 0.28 0.31 0.37 0.29 0.24 0.13 0.08 0.05 0.03 0.02 0.02 0.02 0.01 0.00 0.00 0.00 0.00 0.00 0.00 0.00 0.00 0.00 0.00 0.00 0.00 0.00 0.00 0.00 0.00 0.01 0.01 0.01 0.01 0.01
0.00 0.00 0.00 0.00 0.00 0.02 0.07 0.24 0.33 0.32 0.39 0.40 0.40 0.35 0.22 0.12 0.08 0.02 0.01 0.01 0.01 0.01 0.02 0.01 0.00 0.00 0.00 0.00 0.02 0.01 0.01 0.01 0.00 0.00 0.01 0.02 0.01 0.01 0.02 0.02 0.02 0.01 0.00
0.00 0.00 0.00 0.00 0.00 0.00 0.05 0.17 0.35 0.31 0.38 0.40 0.36 0.35 0.27 0.16 0.09 0.04 0.02 0.03 0.02 0.01 0.01 0.03 0.01 0.01 0.00 0.00 0.00 0.00 0.00 0.00 0.01 0.02 0.04 0.05 0.05 0.04 0.03 0.02 0.01 0.00 0.00
0.00 0.00 0.00 0.00 0.00 0.00 0.05 0.18 0.38 0.49 0.41 0.39 0.36 0.30 0.29 0.22 0.15 0.09 0.06 0.05 0.05 0.03 0.01 0.01 0.01 0.01 0.01 0.00 0.00 0.00 0.00 0.00 0.00 0.02 0.02 0.01 0.01 0.01 0.00 0.00 0.00 0.00 0.00
0.01 0.01 0.00 0.00 0.00 0.00 0.03 0.18 0.29 0.49 0.44 0.35 0.35 0.37 0.32 0.25 0.22 0.17 0.11 0.09 0.06 0.04 0.03 0.02 0.00 0.01 0.01 0.00 0.00 0.00 0.00 0.00 0.00 0.00 0.00 0.00 0.00 0.00 0.00 0.00 0.01 0.02 0.02
0.01 0.01 0.01 0.00 0.00 0.00 0.04 0.09 0.17 0.32 0.40 0.39 0.40 0.43 0.40 0.31 0.21 0.17 0.14 0.11 0.10 0.08 0.05 0.01 0.01 0.02 0.03 0.02 0.02 0.00 0.00 0.00 0.01 0.04 0.06 0.09 0.09 0.10 0.11 0.09 0.09 0.10 0.10
0.00 0.01 0.01 0.01 0.01 0.00 0.01 0.05 0.10 0.17 0.37 0.41 0.35 0.37 0.23 0.21 0.22 0.18 0.17 0.13 0.07 0.07 0.06 0.03 0.02 0.03 0.04 0.03 0.01 0.01 0.01 0.02 0.04 0.06 0.06 0.06 0.06 0.07 0.09 0.08 0.05 0.04 0.02
0.01 0.01 0.01 0.02 0.03 0.02 0.04 0.03 0.06 0.07 0.08 0.13 0.14 0.14 0.16 0.17 0.16 0.17 0.15 0.13 0.11 0.09 0.06 0.02 0.01 0.01 0.01 0.00 0.01 0.01 0.01 0.02 0.05 0.07 0.07 0.06 0.05 0.04 0.04 0.03 0.06 0.03 0.01
0.02 0.02 0.02 0.03 0.03 0.03 0.04 0.06 0.06 0.05 0.06 0.04 0.07 0.09 0.07 0.12 0.15 0.11 0.08 0.06 0.04 0.02 0.02 0.01 0.01 0.01 0.02 0.03 0.03 0.05 0.06 0.09 0.10 0.09 0.09 0.08 0.05 0.03 0.02 0.02 0.02 0.00 0.00
0.03 0.03 0.03 0.03 0.03 0.04 0.05 0.08 0.07 0.02 0.03 0.05 0.04 0.03 0.03 0.04 0.09 0.10 0.06 0.02 0.01 0.01 0.02 0.04 0.03 0.05 0.05 0.05 0.05 0.05 0.05 0.04 0.04 0.03 0.02 0.01 0.01 0.00 0.00 0.00 0.00 0.00 0.00
0.02 0.03 0.04 0.04 0.03 0.04 0.05 0.06 0.06 0.01 0.01 0.02 0.03 0.03 0.03 0.01 0.04 0.04 0.01 0.03 0.04 0.05 0.06 0.04 0.03 0.03 0.03 0.02 0.01 0.01 0.00 0.00 0.00 0.00 0.00 0.00 0.00 0.00 0.00 0.00 0.00 0.00 0.00
0.08 0.05 0.06 0.05 0.08 0.04 0.09 0.10 0.09 0.05 0.06 0.03 0.03 0.06 0.08 0.05 0.07 0.04 0.02 0.01 0.03 0.05 0.05 0.03 0.01 0.01 0.00 0.00 0.00 0.00 0.00 0.00 0.00 0.00 0.00 0.00 0.00 0.00 0.00 0.00 0.00 0.00 0.00

GFSMA_prec_precacc6_096.txt.gz
Total_Precipitation_Accumulation
0.00 0.00 0.00 0.00 0.00 0.00 0.00 0.00 0.00 0.00 0.04 0.13 0.28 0.41 0.39 0.27 0.23 0.17 0.14 0.16 0.28 0.36 0.09 0.05 0.05 0.04 0.02 0.02 0.03 0.02 0.01 0.00 0.00 0.00 0.00 0.00 0.00 0.00 0.00 0.00 0.00 0.00 0.00
0.00 0.00 0.00 0.00 0.00 0.00 0.00 0.00 0.00 0.00 0.01 0.13 0.33 0.46 0.48 0.34 0.23 0.23 0.05 0.03 0.04 0.23 0.17 0.06 0.05 0.02 0.01 0.01 0.03 0.03 0.01 0.01 0.01 0.01 0.00 0.00 0.00 0.00 0.00 0.00 0.00 0.00 0.00
0.00 0.00 0.00 0.00 0.00 0.00 0.00 0.00 0.00 0.00 0.00 0.04 0.26 0.41 0.48 0.36 0.22 0.24 0.11 0.00 0.00 0.02 0.08 0.04 0.03 0.04 0.02 0.01 0.01 0.02 0.02 0.02 0.02 0.01 0.01 0.00 0.00 0.00 0.00 0.00 0.00 0.00 0.00
0.00 0.00 0.00 0.00 0.00 0.01 0.00 0.00 0.00 0.00 0.00 0.04 0.07 0.25 0.39 0.34 0.21 0.21 0.17 0.06 0.03 0.00 0.01 0.01 0.00 0.02 0.02 0.01 0.01 0.01 0.01 0.01 0.02 0.02 0.01 0.00 0.00 0.01 0.01 0.00 0.00 0.00 0.00
0.00 0.00 0.00 0.00 0.00 0.01 0.00 0.00 0.00 0.00 0.00 0.01 0.03 0.07 0.24 0.33 0.27 0.16 0.15 0.13 0.05 0.01 0.00 0.00 0.00 0.00 0.01 0.02 0.01 0.01 0.01 0.01 0.02 0.02 0.01 0.01 0.00 0.01 0.01 0.00 0.00 0.00 0.00
0.00 0.00 0.00 0.00 0.01 0.01 0.01 0.01 0.01 0.01 0.01 0.03 0.05 0.05 0.12 0.16 0.22 0.17 0.09 0.09 0.04 0.00 0.00 0.00 0.00 0.00 0.01 0.01 0.01 0.01 0.02 0.02 0.01 0.02 0.02 0.01 0.01 0.01 0.01 0.00 0.00 0.00 0.00
0.00 0.00 0.00 0.00 0.01 0.00 0.01 0.01 0.02 0.02 0.02 0.04 0.07 0.12 0.26 0.16 0.11 0.14 0.11 0.04 0.02 0.00 0.00 0.00 0.00 0.00 0.00 0.01 0.01 0.01 0.03 0.02 0.02 0.02 0.01 0.01 0.01 0.00 0.00 0.00 0.00 0.00 0.00
0.00 0.00 0.01 0.01 0.01 0.01 0.01 0.02 0.04 0.02 0.02 0.02 0.03 0.13 0.30 0.36 0.34 0.19 0.10 0.07 0.01 0.00 0.00 0.00 0.00 0.00 0.00 0.00 0.00 0.00 0.02 0.03 0.02 0.01 0.00 0.00 0.00 0.00 0.00 0.00 0.00 0.00 0.00
0.01 0.00 0.01 0.02 0.01 0.01 0.02 0.03 0.06 0.06 0.03 0.04 0.01 0.11 0.16 0.18 0.16 0.25 0.19 0.08 0.02 0.00 0.00 0.00 0.00 0.00 0.00 0.00 0.00 0.00 0.00 0.01 0.02 0.01 0.00 0.00 0.00 0.00 0.00 0.00 0.00 0.00 0.00
0.04 0.02 0.01 0.02 0.02 0.01 0.03 0.06 0.08 0.11 0.10 0.05 0.05 0.10 0.05 0.04 0.07 0.16 0.22 0.19 0.05 0.01 0.00 0.00 0.00 0.00 0.00 0.00 0.00 0.00 0.00 0.00 0.00 0.00 0.00 0.00 0.00 0.00 0.00 0.00 0.00 0.00 0.00
0.02 0.02 0.02 0.02 0.02 0.01 0.02 0.05 0.06 0.06 0.07 0.07 0.03 0.09 0.11 0.07 0.15 0.17 0.24 0.20 0.10 0.03 0.01 0.00 0.00 0.00 0.00 0.00 0.00 0.00 0.00 0.00 0.00 0.00 0.00 0.00 0.00 0.00 0.00 0.00 0.00 0.00 0.00
0.01 0.01 0.01 0.01 0.01 0.01 0.01 0.02 0.06 0.05 0.05 0.07 0.10 0.04 0.06 0.10 0.13 0.18 0.21 0.18 0.14 0.09 0.02 0.00 0.00 0.00 0.00 0.00 0.00 0.00 0.00 0.00 0.00 0.00 0.00 0.00 0.00 0.00 0.00 0.00 0.00 0.00 0.00
0.00 0.00 0.01 0.01 0.02 0.01 0.02 0.03 0.03 0.04 0.05 0.10 0.13 0.08 0.05 0.06 0.11 0.21 0.26 0.26 0.16 0.06 0.02 0.00 0.00 0.00 0.00 0.00 0.00 0.00 0.00 0.00 0.00 0.00 0.00 0.00 0.00 0.00 0.00 0.00 0.00 0.00 0.00
0.00 0.00 0.01 0.01 0.01 0.02 0.03 0.03 0.04 0.03 0.09 0.15 0.14 0.14 0.07 0.11 0.13 0.12 0.14 0.20 0.15 0.06 0.01 0.00 0.00 0.00 0.00 0.00 0.00 0.00 0.00 0.00 0.00 0.00 0.00 0.00 0.00 0.00 0.00 0.00 0.00 0.00 0.00
0.00 0.00 0.00 0.01 0.01 0.02 0.03 0.05 0.09 0.10 0.13 0.19 0.17 0.19 0.14 0.11 0.14 0.17 0.11 0.06 0.06 0.09 0.03 0.00 0.00 0.00 0.00 0.00 0.00 0.00 0.00 0.00 0.00 0.00 0.00 0.00 0.00 0.00 0.00 0.00 0.00 0.00 0.00
0.00 0.00 0.00 0.01 0.01 0.01 0.02 0.04 0.13 0.19 0.29 0.29 0.35 0.33 0.25 0.16 0.13 0.14 0.12 0.05 0.04 0.03 0.03 0.01 0.00 0.00 0.00 0.00 0.00 0.00 0.00 0.00 0.00 0.00 0.00 0.00 0.00 0.00 0.00 0.01 0.01 0.01 0.00
0.00 0.00 0.00 0.00 0.00 0.00 0.00 0.03 0.13 0.16 0.30 0.40 0.42 0.42 0.30 0.20 0.24 0.19 0.12 0.07 0.05 0.03 0.02 0.09 0.02 0.01 0.01 0.01 0.01 0.00 0.00 0.00 0.00 0.01 0.01 0.01 0.01 0.01 0.01 0.00 0.00 0.00 0.00
0.00 0.00 0.00 0.00 0.00 0.00 0.00 0.04 0.18 0.30 0.31 0.31 0.40 0.46 0.45 0.27 0.22 0.22 0.14 0.11 0.09 0.08 0.03 0.07 0.08 0.02 0.01 0.01 0.02 0.01 0.01 0.01 0.01 0.03 0.02 0.00 0.00 0.00 0.00 0.00 0.00 0.00 0.00
0.01 0.01 0.00 0.00 0.00 0.00 0.00 0.02 0.11 0.29 0.43 0.42 0.33 0.44 0.39 0.34 0.31 0.23 0.14 0.13 0.11 0.10 0.10 0.06 0.05 0.04 0.03 0.02 0.01 0.01 0.01 0.01 0.00 0.01 0.00 0.00 0.00 0.00 0.00 0.00 0.01 0.02 0.02
0.00 0.01 0.01 0.01 0.00 0.00 0.02 0.05 0.07 0.18 0.32 0.44 0.49 0.39 0.42 0.37 0.34 0.28 0.20 0.16 0.15 0.12 0.11 0.08 0.06 0.06 0.06 0.05 0.04 0.02 0.02 0.01 0.01 0.00 0.00 0.01 0.03 0.04 0.05 0.06 0.06 0.06 0.07
0.00 0.00 0.00 0.00 0.00 0.00 0.01 0.04 0.11 0.15 0.23 0.29 0.36 0.45 0.38 0.42 0.39 0.33 0.26 0.18 0.13 0.12 0.12 0.10 0.08 0.09 0.10 0.10 0.08 0.06 0.05 0.04 0.05 0.04 0.03 0.02 0.02 0.02 0.03 0.03 0.04 0.04 0.03
0.00 0.00 0.00 0.01 0.01 0.00 0.02 0.02 0.05 0.08 0.09 0.16 0.23 0.31 0.44 0.43 0.41 0.44 0.36 0.31 0.25 0.19 0.15 0.11 0.09 0.09 0.08 0.07 0.08 0.08 0.08 0.07 0.08 0.08 0.06 0.06 0.05 0.04 0.04 0.04 0.08 0.04 0.02
0.00 0.00 0.01 0.01 0.01 0.02 0.03 0.04 0.07 0.05 0.08 0.04 0.11 0.20 0.26 0.44 0.39 0.28 0.29 0.27 0.25 0.22 0.17 0.12 0.09 0.06 0.04 0.03 0.03 0.02 0.02 0.03 0.04 0.05 0.06 0.06 0.06 0.07 0.07 0.08 0.07 0.02 0.00
0.01 0.01 0.01 0.01 0.02 0.02 0.04 0.05 0.07 0.03 0.09 0.12 0.08 0.06 0.10 0.16 0.25 0.23 0.21 0.23 0.16 0.11 0.09 0.06 0.03 0.04 0.03 0.02 0.03 0.04 0.05 0.07 0.09 0.10 0.10 0.08 0.07 0.05 0.03 0.01 0.02 0.00 0.00
0.01 0.01 0.01 0.01 0.02 0.03 0.04 0.05 0.06 0.01 0.01 0.03 0.06 0.07 0.06 0.05 0.10 0.12 0.09 0.11 0.12 0.10 0.08 0.08 0.05 0.04 0.04 0.04 0.03 0.02 0.03 0.03 0.03 0.02 0.01 0.01 0.01 0.00 0.00 0.00 0.00 0.00 0.00
0.10 0.05 0.03 0.01 0.03 0.01 0.04 0.06 0.07 0.03 0.05 0.02 0.03 0.07 0.12 0.09 0.10 0.06 0.02 0.02 0.06 0.09 0.11 0.10 0.07 0.05 0.03 0.02 0.02 0.00 0.00 0.00 0.00 0.00 0.00 0.00 0.00 0.00 0.00 0.00 0.00 0.00 0.00